Time,TemperatureF,DewpointF,PressureIn,WindDirection,WindDirectionDegrees,WindSpeedMPH,WindSpeedGustMPH,Humidity,HourlyPrecipIn,Conditions,Clouds,dailyrainin,SoftwareType,DateUTC
2013-08-08 00:00:00,61.7,53.0,29.29,North,0,0.0,0.0,73,0.00,,---,0.00,VWS V13.01,2013-08-08 05:00:00,
2013-08-08 00:05:00,61.7,53.0,29.28,North,0,0.0,0.0,73,0.00,,---,0.00,VWS V13.01,2013-08-08 05:05:00,
2013-08-08 00:10:00,61.5,52.8,29.29,North,0,0.0,0.0,73,0.00,,---,0.00,VWS V13.01,2013-08-08 05:10:00,
2013-08-08 00:15:00,61.5,52.8,29.29,North,0,0.0,0.0,73,0.00,,---,0.00,VWS V13.01,2013-08-08 05:15:00,
2013-08-08 00:20:00,61.3,53.0,29.29,North,0,0.0,0.0,74,0.00,,---,0.00,VWS V13.01,2013-08-08 05:20:00,
2013-08-08 00:26:00,61.3,53.0,29.29,North,0,0.0,0.0,74,0.00,,---,0.00,VWS V13.01,2013-08-08 05:26:00,
2013-08-08 00:31:00,61.1,52.8,29.29,North,0,0.0,0.0,74,0.00,,---,0.00,VWS V13.01,2013-08-08 05:31:00,
2013-08-08 00:36:00,61.1,52.8,29.29,North,0,0.0,0.0,74,0.00,,---,0.00,VWS V13.01,2013-08-08 05:36:00,
2013-08-08 00:41:00,60.9,52.6,29.28,North,0,0.0,0.0,74,0.00,,---,0.00,VWS V13.01,2013-08-08 05:41:00,
2013-08-08 00:46:00,60.9,52.6,29.29,North,0,0.0,0.0,74,0.00,,---,0.00,VWS V13.01,2013-08-08 05:46:00,
2013-08-08 00:51:00,60.9,52.6,29.29,North,0,0.0,0.0,74,0.00,,---,0.00,VWS V13.01,2013-08-08 05:51:00,
2013-08-08 00:56:00,60.6,52.3,29.29,North,0,0.0,0.0,74,0.00,,---,0.00,VWS V13.01,2013-08-08 05:56:00,
2013-08-08 01:01:00,60.6,52.3,29.28,North,0,0.0,0.0,74,0.00,,---,0.00,VWS V13.01,2013-08-08 06:01:00,
2013-08-08 01:06:00,60.6,52.3,29.28,North,0,0.0,0.0,74,0.00,,---,0.00,VWS V13.01,2013-08-08 06:06:00,
2013-08-08 01:11:00,60.4,52.1,29.28,North,0,0.0,0.0,74,0.00,,---,0.00,VWS V13.01,2013-08-08 06:11:00,
2013-08-08 01:16:00,60.4,52.1,29.28,North,0,0.0,0.0,74,0.00,,---,0.00,VWS V13.01,2013-08-08 06:16:00,
2013-08-08 01:21:00,60.2,52.3,29.28,North,0,0.0,0.0,75,0.00,,---,0.00,VWS V13.01,2013-08-08 06:21:00,
2013-08-08 01:26:00,60.0,52.1,29.28,North,0,0.0,0.0,75,0.00,,---,0.00,VWS V13.01,2013-08-08 06:26:00,
2013-08-08 01:31:00,60.0,52.1,29.28,North,0,0.0,0.0,75,0.00,,---,0.00,VWS V13.01,2013-08-08 06:31:00,
2013-08-08 01:36:00,60.0,52.1,29.28,North,0,0.0,0.0,75,0.00,,---,0.00,VWS V13.01,2013-08-08 06:36:00,
2013-08-08 01:41:00,60.0,52.4,29.28,North,0,0.0,0.0,76,0.00,,---,0.00,VWS V13.01,2013-08-08 06:41:00,
2013-08-08 01:46:00,59.9,52.3,29.29,North,0,0.0,0.0,76,0.00,,---,0.00,VWS V13.01,2013-08-08 06:46:00,
2013-08-08 01:51:00,59.9,52.3,29.29,North,0,0.0,0.0,76,0.00,,---,0.00,VWS V13.01,2013-08-08 06:51:00,
2013-08-08 01:56:00,59.7,51.8,29.29,North,0,0.0,0.0,75,0.00,,---,0.00,VWS V13.01,2013-08-08 06:56:00,
2013-08-08 02:02:00,59.7,51.8,29.29,North,0,0.0,0.0,75,0.00,,---,0.00,VWS V13.01,2013-08-08 07:02:00,
2013-08-08 02:07:00,59.5,51.6,29.29,North,0,0.0,0.0,75,0.00,,---,0.00,VWS V13.01,2013-08-08 07:07:00,
2013-08-08 02:12:00,59.5,51.6,29.29,North,0,0.0,0.0,75,0.00,,---,0.00,VWS V13.01,2013-08-08 07:12:00,
2013-08-08 02:17:00,59.3,51.4,29.29,North,0,0.0,0.0,75,0.00,,---,0.00,VWS V13.01,2013-08-08 07:17:00,
2013-08-08 02:22:00,59.3,51.4,29.30,North,0,0.0,0.0,75,0.00,,---,0.00,VWS V13.01,2013-08-08 07:22:00,
2013-08-08 02:27:00,59.1,51.5,29.29,North,0,0.0,0.0,76,0.00,,---,0.00,VWS V13.01,2013-08-08 07:27:00,
2013-08-08 02:32:00,59.0,51.5,29.28,North,0,0.0,0.0,76,0.00,,---,0.00,VWS V13.01,2013-08-08 07:32:00,
2013-08-08 02:37:00,58.8,51.3,29.28,North,0,0.0,0.0,76,0.00,,---,0.00,VWS V13.01,2013-08-08 07:37:00,
2013-08-08 02:42:00,58.8,51.3,29.28,North,0,0.0,0.0,76,0.00,,---,0.00,VWS V13.01,2013-08-08 07:42:00,
2013-08-08 02:47:00,58.8,51.3,29.28,North,0,0.0,0.0,76,0.00,,---,0.00,VWS V13.01,2013-08-08 07:47:00,
2013-08-08 02:52:00,58.8,51.3,29.28,North,0,0.0,0.0,76,0.00,,---,0.00,VWS V13.01,2013-08-08 07:52:00,
2013-08-08 02:58:00,58.8,51.3,29.27,North,0,0.0,0.0,76,0.00,,---,0.00,VWS V13.01,2013-08-08 07:58:00,
2013-08-08 03:03:00,58.8,51.3,29.27,North,0,0.0,0.0,76,0.00,,---,0.00,VWS V13.01,2013-08-08 08:03:00,
2013-08-08 03:08:00,58.8,51.3,29.27,North,0,0.0,0.0,76,0.00,,---,0.00,VWS V13.01,2013-08-08 08:08:00,
2013-08-08 03:13:00,58.8,51.3,29.27,North,0,0.0,0.0,76,0.00,,---,0.00,VWS V13.01,2013-08-08 08:13:00,
2013-08-08 03:18:00,58.8,51.3,29.27,North,0,0.0,0.0,76,0.00,,---,0.00,VWS V13.01,2013-08-08 08:18:00,
2013-08-08 03:23:00,58.8,51.3,29.27,North,0,0.0,0.0,76,0.00,,---,0.00,VWS V13.01,2013-08-08 08:23:00,
2013-08-08 03:28:00,58.8,51.3,29.26,North,0,0.0,0.0,76,0.00,,---,0.00,VWS V13.01,2013-08-08 08:28:00,
2013-08-08 03:33:00,58.8,51.3,29.26,North,0,0.0,0.0,76,0.00,,---,0.00,VWS V13.01,2013-08-08 08:33:00,
2013-08-08 03:38:00,58.8,51.3,29.27,North,0,0.0,0.0,76,0.00,,---,0.00,VWS V13.01,2013-08-08 08:38:00,
2013-08-08 03:43:00,58.6,51.1,29.27,North,0,0.0,0.0,76,0.00,,---,0.00,VWS V13.01,2013-08-08 08:43:00,
2013-08-08 03:48:00,58.4,50.9,29.27,North,0,0.0,0.0,76,0.00,,---,0.00,VWS V13.01,2013-08-08 08:48:00,
2013-08-08 03:53:00,58.2,50.7,29.26,North,0,0.0,0.0,76,0.00,,---,0.00,VWS V13.01,2013-08-08 08:53:00,
2013-08-08 03:58:00,58.2,51.0,29.26,North,0,0.0,0.0,77,0.00,,---,0.00,VWS V13.01,2013-08-08 08:58:00,
2013-08-08 04:03:00,58.1,50.9,29.25,North,0,0.0,0.0,77,0.00,,---,0.00,VWS V13.01,2013-08-08 09:03:00,
2013-08-08 04:08:00,58.1,50.9,29.25,North,0,0.0,0.0,77,0.00,,---,0.00,VWS V13.01,2013-08-08 09:08:00,
2013-08-08 04:13:00,58.1,50.9,29.24,North,0,0.0,0.0,77,0.00,,---,0.00,VWS V13.01,2013-08-08 09:13:00,
2013-08-08 04:18:00,58.1,50.9,29.24,North,0,0.0,0.0,77,0.00,,---,0.00,VWS V13.01,2013-08-08 09:18:00,
2013-08-08 04:23:00,58.1,50.9,29.24,North,0,0.0,0.0,77,0.00,,---,0.00,VWS V13.01,2013-08-08 09:23:00,
2013-08-08 04:28:00,58.1,50.9,29.25,North,0,0.0,0.0,77,0.00,,---,0.00,VWS V13.01,2013-08-08 09:28:00,
2013-08-08 04:33:00,58.1,50.9,29.24,North,0,0.0,0.0,77,0.00,,---,0.00,VWS V13.01,2013-08-08 09:33:00,
2013-08-08 04:38:00,58.1,50.9,29.25,North,0,0.0,0.0,77,0.00,,---,0.00,VWS V13.01,2013-08-08 09:38:00,
2013-08-08 04:43:00,57.9,50.7,29.25,North,0,0.0,0.0,77,0.00,,---,0.00,VWS V13.01,2013-08-08 09:43:00,
2013-08-08 04:48:00,57.9,50.7,29.24,North,0,0.0,0.0,77,0.00,,---,0.00,VWS V13.01,2013-08-08 09:48:00,
2013-08-08 04:53:00,57.9,50.7,29.24,North,0,0.0,0.0,77,0.00,,---,0.00,VWS V13.01,2013-08-08 09:53:00,
2013-08-08 04:58:00,57.9,50.7,29.24,North,0,0.0,0.0,77,0.00,,---,0.00,VWS V13.01,2013-08-08 09:58:00,
2013-08-08 05:03:00,57.9,50.7,29.24,North,0,0.0,0.0,77,0.00,,---,0.00,VWS V13.01,2013-08-08 10:03:00,
2013-08-08 05:08:00,57.9,50.7,29.23,North,0,0.0,0.0,77,0.00,,---,0.00,VWS V13.01,2013-08-08 10:08:00,
2013-08-08 05:13:00,57.7,50.5,29.23,North,0,0.0,0.0,77,0.00,,---,0.00,VWS V13.01,2013-08-08 10:13:00,
2013-08-08 05:18:00,57.7,50.5,29.23,North,0,0.0,0.0,77,0.00,,---,0.00,VWS V13.01,2013-08-08 10:18:00,
2013-08-08 05:23:00,57.7,50.5,29.23,North,0,0.0,0.0,77,0.00,,---,0.00,VWS V13.01,2013-08-08 10:23:00,
2013-08-08 05:28:00,57.5,50.7,29.23,North,0,0.0,0.0,78,0.00,,---,0.00,VWS V13.01,2013-08-08 10:28:00,
2013-08-08 05:33:00,57.5,50.7,29.24,North,0,0.0,0.0,78,0.00,,---,0.00,VWS V13.01,2013-08-08 10:33:00,
2013-08-08 05:38:00,57.5,50.7,29.24,North,0,0.0,0.0,78,0.00,,---,0.00,VWS V13.01,2013-08-08 10:38:00,
2013-08-08 05:43:00,57.3,50.2,29.24,North,0,0.0,0.0,77,0.00,,---,0.00,VWS V13.01,2013-08-08 10:43:00,
2013-08-08 05:48:00,57.3,50.2,29.23,North,0,0.0,0.0,77,0.00,,---,0.00,VWS V13.01,2013-08-08 10:48:00,
2013-08-08 05:53:00,57.3,50.5,29.23,North,0,0.0,0.0,78,0.00,,---,0.00,VWS V13.01,2013-08-08 10:53:00,
2013-08-08 05:58:00,57.2,50.4,29.23,North,0,0.0,0.0,78,0.00,,---,0.00,VWS V13.01,2013-08-08 10:58:00,
2013-08-08 06:03:00,57.2,50.4,29.23,North,0,0.0,0.0,78,0.00,,---,0.00,VWS V13.01,2013-08-08 11:03:00,
2013-08-08 06:08:00,57.0,50.2,29.24,North,0,0.0,0.0,78,0.00,,---,0.00,VWS V13.01,2013-08-08 11:08:00,
2013-08-08 06:13:00,57.0,50.2,29.24,North,0,0.0,0.0,78,0.00,,---,0.00,VWS V13.01,2013-08-08 11:13:00,
2013-08-08 06:18:00,57.0,50.2,29.25,North,0,0.0,0.0,78,0.00,,---,0.00,VWS V13.01,2013-08-08 11:18:00,
2013-08-08 06:23:00,57.0,50.2,29.25,North,0,0.0,0.0,78,0.00,,---,0.00,VWS V13.01,2013-08-08 11:23:00,
2013-08-08 06:28:00,56.8,50.0,29.25,North,0,0.0,0.0,78,0.00,,---,0.00,VWS V13.01,2013-08-08 11:28:00,
2013-08-08 06:33:00,56.8,50.0,29.25,North,0,0.0,0.0,78,0.00,,---,0.00,VWS V13.01,2013-08-08 11:33:00,
2013-08-08 06:38:00,56.8,50.0,29.25,North,0,0.0,0.0,78,0.00,,---,0.00,VWS V13.01,2013-08-08 11:38:00,
2013-08-08 06:43:00,56.8,50.0,29.25,North,0,0.0,0.0,78,0.00,,---,0.00,VWS V13.01,2013-08-08 11:43:00,
2013-08-08 06:48:00,56.8,50.0,29.26,North,0,0.0,0.0,78,0.00,,---,0.00,VWS V13.01,2013-08-08 11:48:00,
2013-08-08 06:53:00,57.0,50.2,29.26,North,0,0.0,0.0,78,0.00,,---,0.00,VWS V13.01,2013-08-08 11:53:00,
2013-08-08 06:58:00,57.0,50.2,29.26,North,0,0.0,0.0,78,0.00,,---,0.00,VWS V13.01,2013-08-08 11:58:00,
2013-08-08 07:03:00,57.0,50.2,29.26,North,0,0.0,0.0,78,0.00,,---,0.00,VWS V13.01,2013-08-08 12:03:00,
2013-08-08 07:08:00,57.3,50.5,29.27,North,0,0.0,0.0,78,0.00,,---,0.00,VWS V13.01,2013-08-08 12:08:00,
2013-08-08 07:13:00,57.3,50.5,29.27,North,0,0.0,0.0,78,0.00,,---,0.00,VWS V13.01,2013-08-08 12:13:00,
2013-08-08 07:18:00,57.5,50.7,29.27,North,0,0.0,0.0,78,0.00,,---,0.00,VWS V13.01,2013-08-08 12:18:00,
2013-08-08 07:23:00,57.7,50.9,29.27,North,0,0.0,0.0,78,0.00,,---,0.00,VWS V13.01,2013-08-08 12:23:00,
2013-08-08 07:28:00,57.9,51.1,29.27,North,0,0.0,0.0,78,0.00,,---,0.00,VWS V13.01,2013-08-08 12:28:00,
2013-08-08 07:33:00,57.9,51.1,29.27,North,0,0.0,0.0,78,0.00,,---,0.00,VWS V13.01,2013-08-08 12:33:00,
2013-08-08 07:38:00,58.1,51.3,29.28,North,0,0.0,0.0,78,0.00,,---,0.00,VWS V13.01,2013-08-08 12:38:00,
2013-08-08 07:43:00,58.6,51.8,29.28,NE,45,0.0,0.0,78,0.00,,---,0.00,VWS V13.01,2013-08-08 12:43:00,
2013-08-08 07:48:00,58.8,52.0,29.28,NE,45,0.0,0.0,78,0.00,,---,0.00,VWS V13.01,2013-08-08 12:48:00,
2013-08-08 07:53:00,58.8,51.6,29.28,NE,45,0.0,0.0,77,0.00,,---,0.00,VWS V13.01,2013-08-08 12:53:00,
2013-08-08 07:58:00,59.1,51.9,29.28,NE,45,0.0,0.0,77,0.00,,---,0.00,VWS V13.01,2013-08-08 12:58:00,
2013-08-08 08:03:00,59.3,52.1,29.29,NE,45,0.0,0.0,77,0.00,,---,0.00,VWS V13.01,2013-08-08 13:03:00,
2013-08-08 08:09:00,59.7,52.5,29.28,NE,45,0.0,0.0,77,0.00,,---,0.00,VWS V13.01,2013-08-08 13:09:00,
2013-08-08 08:14:00,60.0,52.8,29.28,ENE,68,0.0,0.0,77,0.00,,---,0.00,VWS V13.01,2013-08-08 13:14:00,
2013-08-08 08:19:00,60.0,52.4,29.28,ENE,68,0.0,0.0,76,0.00,,---,0.00,VWS V13.01,2013-08-08 13:19:00,
2013-08-08 08:24:00,60.6,53.0,29.28,East,90,0.0,0.0,76,0.00,,---,0.00,VWS V13.01,2013-08-08 13:24:00,
2013-08-08 08:29:00,60.6,53.0,29.28,East,90,0.0,0.0,76,0.00,,---,0.00,VWS V13.01,2013-08-08 13:29:00,
2013-08-08 08:34:00,60.9,53.3,29.28,East,90,0.0,0.0,76,0.00,,---,0.00,VWS V13.01,2013-08-08 13:34:00,
2013-08-08 08:39:00,61.3,54.0,29.28,East,90,0.0,0.0,77,0.00,,---,0.00,VWS V13.01,2013-08-08 13:39:00,
2013-08-08 08:44:00,61.7,54.4,29.27,East,90,0.0,0.0,77,0.00,,---,0.00,VWS V13.01,2013-08-08 13:44:00,
2013-08-08 08:49:00,61.8,54.5,29.27,East,90,0.0,0.0,77,0.00,,---,0.00,VWS V13.01,2013-08-08 13:49:00,
2013-08-08 08:54:00,62.4,55.1,29.27,ESE,112,0.0,0.0,77,0.00,,---,0.00,VWS V13.01,2013-08-08 13:54:00,
2013-08-08 08:59:00,62.7,55.4,29.26,SE,135,0.0,0.0,77,0.00,,---,0.00,VWS V13.01,2013-08-08 13:59:00,
2013-08-08 09:04:00,63.1,55.4,29.25,SE,135,6.2,6.2,76,0.00,,---,0.00,VWS V13.01,2013-08-08 14:04:00,
2013-08-08 09:09:00,63.3,55.6,29.25,SE,135,2.2,4.0,76,0.00,,---,0.00,VWS V13.01,2013-08-08 14:09:00,
2013-08-08 09:14:00,63.6,55.9,29.25,SE,135,0.0,0.0,76,0.00,,---,0.00,VWS V13.01,2013-08-08 14:14:00,
2013-08-08 09:19:00,64.0,56.3,29.25,SE,135,0.0,0.0,76,0.00,,---,0.00,VWS V13.01,2013-08-08 14:19:00,
2013-08-08 09:24:00,64.5,56.4,29.25,ESE,112,0.0,0.0,75,0.00,,---,0.00,VWS V13.01,2013-08-08 14:24:00,
2013-08-08 09:29:00,64.7,56.2,29.25,SSE,158,0.0,0.0,74,0.00,,---,0.00,VWS V13.01,2013-08-08 14:29:00,
2013-08-08 09:34:00,64.9,56.4,29.26,SE,135,8.4,8.4,74,0.00,,---,0.00,VWS V13.01,2013-08-08 14:34:00,
2013-08-08 09:39:00,65.3,56.8,29.27,SE,135,0.0,11.6,74,0.00,,---,0.00,VWS V13.01,2013-08-08 14:39:00,
2013-08-08 09:44:00,65.6,57.1,29.27,SE,135,0.0,0.0,74,0.00,,---,0.00,VWS V13.01,2013-08-08 14:44:00,
2013-08-08 09:49:00,66.0,57.1,29.27,SE,135,5.8,5.8,73,0.00,,---,0.00,VWS V13.01,2013-08-08 14:49:00,
2013-08-08 09:54:00,66.5,57.2,29.27,SE,135,4.8,4.8,72,0.00,,---,0.00,VWS V13.01,2013-08-08 14:54:00,
2013-08-08 09:59:00,66.7,57.4,29.27,SE,135,0.0,0.0,72,0.00,,---,0.00,VWS V13.01,2013-08-08 14:59:00,
2013-08-08 10:04:00,67.2,57.5,29.27,SE,135,0.0,0.0,71,0.00,,---,0.00,VWS V13.01,2013-08-08 15:04:00,
2013-08-08 10:09:00,67.8,58.1,29.28,SE,135,1.6,6.2,71,0.00,,---,0.00,VWS V13.01,2013-08-08 15:09:00,
2013-08-08 10:14:00,68.0,57.9,29.28,SE,135,5.8,5.8,70,0.00,,---,0.00,VWS V13.01,2013-08-08 15:14:00,
2013-08-08 10:19:00,68.3,58.2,29.28,SSE,158,0.0,0.0,70,0.00,,---,0.00,VWS V13.01,2013-08-08 15:19:00,
2013-08-08 10:24:00,68.9,58.7,29.28,SSE,158,0.0,0.0,70,0.00,,---,0.00,VWS V13.01,2013-08-08 15:24:00,
2013-08-08 10:29:00,69.2,58.6,29.28,SSE,158,0.0,0.0,69,0.00,,---,0.00,VWS V13.01,2013-08-08 15:29:00,
2013-08-08 10:34:00,69.6,59.0,29.28,SSE,158,0.0,0.0,69,0.00,,---,0.00,VWS V13.01,2013-08-08 15:34:00,
2013-08-08 10:39:00,69.9,59.3,29.28,SSE,158,0.0,0.0,69,0.00,,---,0.00,VWS V13.01,2013-08-08 15:39:00,
2013-08-08 10:44:00,70.1,59.1,29.29,SSE,158,5.8,5.8,68,0.00,,---,0.00,VWS V13.01,2013-08-08 15:44:00,
2013-08-08 10:49:00,70.3,58.8,29.29,SSE,158,0.0,0.0,67,0.00,,---,0.00,VWS V13.01,2013-08-08 15:49:00,
2013-08-08 10:54:00,70.7,59.2,29.29,SSE,158,0.0,0.0,67,0.00,,---,0.00,VWS V13.01,2013-08-08 15:54:00,
2013-08-08 10:59:00,70.8,59.3,29.29,SSE,158,0.0,0.0,67,0.00,,---,0.00,VWS V13.01,2013-08-08 15:59:00,
2013-08-08 11:04:00,71.2,59.7,29.29,SSE,158,0.0,0.0,67,0.00,,---,0.00,VWS V13.01,2013-08-08 16:04:00,
2013-08-08 11:09:00,71.4,59.5,29.29,SSE,158,0.0,0.0,66,0.00,,---,0.00,VWS V13.01,2013-08-08 16:09:00,
2013-08-08 11:14:00,71.6,59.7,29.30,SSE,158,0.0,0.0,66,0.00,,---,0.00,VWS V13.01,2013-08-08 16:14:00,
2013-08-08 11:19:00,71.7,59.3,29.30,SSE,158,0.0,0.0,65,0.00,,---,0.00,VWS V13.01,2013-08-08 16:19:00,
2013-08-08 11:24:00,71.9,59.5,29.30,SSE,158,0.0,0.0,65,0.00,,---,0.00,VWS V13.01,2013-08-08 16:24:00,
2013-08-08 11:29:00,71.9,59.5,29.30,SSE,158,0.0,0.0,65,0.00,,---,0.00,VWS V13.01,2013-08-08 16:29:00,
2013-08-08 11:34:00,71.9,59.5,29.30,SSE,158,0.0,0.0,65,0.00,,---,0.00,VWS V13.01,2013-08-08 16:34:00,
2013-08-08 11:39:00,71.9,59.1,29.30,SSE,158,0.0,0.0,64,0.00,,---,0.00,VWS V13.01,2013-08-08 16:39:00,
2013-08-08 11:44:00,71.7,58.9,29.30,SSE,158,0.0,0.0,64,0.00,,---,0.00,VWS V13.01,2013-08-08 16:44:00,
2013-08-08 11:49:00,71.7,58.9,29.30,SSE,158,0.0,0.0,64,0.00,,---,0.00,VWS V13.01,2013-08-08 16:49:00,
2013-08-08 11:54:00,71.4,58.6,29.30,SSE,158,0.0,0.0,64,0.00,,---,0.00,VWS V13.01,2013-08-08 16:54:00,
2013-08-08 11:59:00,71.4,58.6,29.29,SSE,158,0.0,0.0,64,0.00,,---,0.00,VWS V13.01,2013-08-08 16:59:00,
2013-08-08 12:05:00,71.2,58.4,29.30,SSE,158,0.0,0.0,64,0.00,,---,0.00,VWS V13.01,2013-08-08 17:05:00,
2013-08-08 12:10:00,71.2,58.8,29.30,SSE,158,0.0,0.0,65,0.00,,---,0.00,VWS V13.01,2013-08-08 17:10:00,
2013-08-08 12:16:00,71.0,59.1,29.30,SSE,158,0.0,0.0,66,0.00,,---,0.00,VWS V13.01,2013-08-08 17:16:00,
2013-08-08 12:21:00,70.8,58.9,29.29,SSE,158,0.0,0.0,66,0.00,,---,0.00,VWS V13.01,2013-08-08 17:21:00,
2013-08-08 12:26:00,70.8,59.3,29.29,SSE,158,0.0,0.0,67,0.00,,---,0.00,VWS V13.01,2013-08-08 17:26:00,
2013-08-08 12:31:00,70.8,59.3,29.29,SSE,158,0.0,0.0,67,0.00,,---,0.00,VWS V13.01,2013-08-08 17:31:00,
2013-08-08 12:36:00,70.7,59.2,29.29,SSE,158,0.0,0.0,67,0.00,,---,0.00,VWS V13.01,2013-08-08 17:36:00,
2013-08-08 12:41:00,70.8,59.3,29.29,SSE,158,0.0,0.0,67,0.00,,---,0.00,VWS V13.01,2013-08-08 17:41:00,
2013-08-08 12:46:00,70.8,59.3,29.29,SSE,158,0.0,0.0,67,0.00,,---,0.00,VWS V13.01,2013-08-08 17:46:00,
2013-08-08 12:51:00,70.8,59.3,29.28,SSE,158,0.0,0.0,67,0.00,,---,0.00,VWS V13.01,2013-08-08 17:51:00,
2013-08-08 12:56:00,70.8,58.9,29.28,SSE,158,0.0,0.0,66,0.00,,---,0.00,VWS V13.01,2013-08-08 17:56:00,
2013-08-08 13:01:00,70.8,59.3,29.28,SSE,158,0.0,0.0,67,0.00,,---,0.00,VWS V13.01,2013-08-08 18:01:00,
2013-08-08 13:06:00,71.2,59.7,29.28,SSE,158,0.0,0.0,67,0.00,,---,0.00,VWS V13.01,2013-08-08 18:06:00,
2013-08-08 13:11:00,71.2,59.7,29.28,SSE,158,0.0,0.0,67,0.00,,---,0.00,VWS V13.01,2013-08-08 18:11:00,
2013-08-08 13:16:00,71.4,59.9,29.28,SSE,158,0.0,0.0,67,0.00,,---,0.00,VWS V13.01,2013-08-08 18:16:00,
2013-08-08 13:21:00,71.4,59.9,29.28,SSE,158,0.0,0.0,67,0.00,,---,0.00,VWS V13.01,2013-08-08 18:21:00,
2013-08-08 13:26:00,71.7,59.8,29.28,SSE,158,0.0,0.0,66,0.00,,---,0.00,VWS V13.01,2013-08-08 18:26:00,
2013-08-08 13:31:00,72.1,60.1,29.28,SSE,158,4.0,4.0,66,0.00,,---,0.00,VWS V13.01,2013-08-08 18:31:00,
2013-08-08 13:36:00,72.1,59.7,29.29,SSE,158,0.0,0.0,65,0.00,,---,0.00,VWS V13.01,2013-08-08 18:36:00,
2013-08-08 13:41:00,72.3,59.9,29.29,SSE,158,0.0,0.0,65,0.00,,---,0.00,VWS V13.01,2013-08-08 18:41:00,
2013-08-08 13:46:00,72.3,59.5,29.28,SSE,158,0.0,0.0,64,0.00,,---,0.00,VWS V13.01,2013-08-08 18:46:00,
2013-08-08 13:51:00,72.3,59.5,29.28,SSE,158,0.0,0.0,64,0.00,,---,0.00,VWS V13.01,2013-08-08 18:51:00,
2013-08-08 13:56:00,72.5,59.6,29.28,SSE,158,0.0,0.0,64,0.00,,---,0.00,VWS V13.01,2013-08-08 18:56:00,
2013-08-08 14:01:00,72.6,59.7,29.28,SSE,158,0.0,0.0,64,0.00,,---,0.00,VWS V13.01,2013-08-08 19:01:00,
2013-08-08 14:06:00,72.6,59.7,29.28,SSE,158,0.0,0.0,64,0.00,,---,0.00,VWS V13.01,2013-08-08 19:06:00,
2013-08-08 14:11:00,73.2,60.3,29.28,SSE,158,0.0,0.0,64,0.00,,---,0.00,VWS V13.01,2013-08-08 19:11:00,
2013-08-08 14:16:00,74.1,61.6,29.28,SSE,158,0.0,0.0,65,0.00,,---,0.00,VWS V13.01,2013-08-08 19:16:00,
2013-08-08 14:21:00,74.4,61.0,29.28,SSE,158,46.4,46.4,63,0.00,,---,0.00,VWS V13.01,2013-08-08 19:21:00,
2013-08-08 14:26:00,75.0,61.6,29.27,SSE,158,0.0,0.0,63,0.00,,---,0.00,VWS V13.01,2013-08-08 19:26:00,
2013-08-08 14:31:00,75.5,61.6,29.28,SSE,158,0.0,28.0,62,0.00,,---,0.00,VWS V13.01,2013-08-08 19:31:00,
2013-08-08 14:36:00,76.1,61.2,29.27,SSE,158,0.0,0.0,60,0.00,,---,0.00,VWS V13.01,2013-08-08 19:36:00,
2013-08-08 14:41:00,76.6,60.7,29.28,SSE,158,0.0,0.0,58,0.00,,---,0.00,VWS V13.01,2013-08-08 19:41:00,
2013-08-08 14:46:00,76.6,60.2,29.27,SSE,158,0.0,0.0,57,0.00,,---,0.00,VWS V13.01,2013-08-08 19:46:00,
2013-08-08 14:51:00,77.1,61.2,29.28,SSE,158,0.0,0.0,58,0.00,,---,0.00,VWS V13.01,2013-08-08 19:51:00,
2013-08-08 14:56:00,77.5,60.1,29.27,ENE,68,0.0,0.0,55,0.00,,---,0.00,VWS V13.01,2013-08-08 19:56:00,
2013-08-08 15:02:00,77.3,59.4,29.28,NE,45,0.0,0.0,54,0.00,,---,0.00,VWS V13.01,2013-08-08 20:02:00,
2013-08-08 15:07:00,77.5,60.1,29.28,North,0,4.0,6.6,55,0.00,,---,0.00,VWS V13.01,2013-08-08 20:07:00,
2013-08-08 15:12:00,77.3,60.4,29.28,North,0,0.0,0.0,56,0.00,,---,0.00,VWS V13.01,2013-08-08 20:12:00,
2013-08-08 15:17:00,77.1,60.2,29.28,North,0,0.0,0.0,56,0.00,,---,0.00,VWS V13.01,2013-08-08 20:17:00,
2013-08-08 15:22:00,77.3,59.9,29.28,North,0,0.0,0.0,55,0.00,,---,0.00,VWS V13.01,2013-08-08 20:22:00,
2013-08-08 15:27:00,77.9,61.0,29.28,North,0,7.0,7.0,56,0.00,,---,0.00,VWS V13.01,2013-08-08 20:27:00,
2013-08-08 15:32:00,78.0,60.5,29.28,North,0,0.0,0.0,55,0.00,,---,0.00,VWS V13.01,2013-08-08 20:32:00,
2013-08-08 15:37:00,78.0,60.0,29.28,North,0,0.0,3.0,54,0.00,,---,0.00,VWS V13.01,2013-08-08 20:37:00,
2013-08-08 15:42:00,78.0,60.0,29.28,North,0,0.0,0.0,54,0.00,,---,0.00,VWS V13.01,2013-08-08 20:42:00,
2013-08-08 15:47:00,78.0,60.5,29.28,North,0,6.6,6.6,55,0.00,,---,0.00,VWS V13.01,2013-08-08 20:47:00,
2013-08-08 15:52:00,78.0,60.0,29.28,North,0,0.0,0.0,54,0.00,,---,0.00,VWS V13.01,2013-08-08 20:52:00,
2013-08-08 15:57:00,78.0,60.0,29.28,North,0,4.8,4.8,54,0.00,,---,0.00,VWS V13.01,2013-08-08 20:57:00,
2013-08-08 16:02:00,77.7,59.2,29.28,North,0,0.0,0.0,53,0.00,,---,0.00,VWS V13.01,2013-08-08 21:02:00,
2013-08-08 16:08:00,77.7,59.2,29.28,North,0,0.0,0.0,53,0.00,,---,0.00,VWS V13.01,2013-08-08 21:08:00,
2013-08-08 16:14:00,77.7,59.8,29.28,North,0,0.0,0.0,54,0.00,,---,0.00,VWS V13.01,2013-08-08 21:14:00,
2013-08-08 16:20:00,77.7,59.2,29.28,North,0,7.6,7.6,53,0.00,,---,0.00,VWS V13.01,2013-08-08 21:20:00,
2013-08-08 16:25:00,77.3,58.8,29.28,North,0,0.0,0.0,53,0.00,,---,0.00,VWS V13.01,2013-08-08 21:25:00,
2013-08-08 16:30:00,77.1,58.7,29.28,North,0,0.0,0.0,53,0.00,,---,0.00,VWS V13.01,2013-08-08 21:30:00,
2013-08-08 16:35:00,76.8,58.4,29.28,North,0,3.4,11.0,53,0.00,,---,0.00,VWS V13.01,2013-08-08 21:35:00,
2013-08-08 16:40:00,76.6,58.2,29.28,North,0,0.0,0.0,53,0.00,,---,0.00,VWS V13.01,2013-08-08 21:40:00,
2013-08-08 16:45:00,76.2,57.3,29.28,North,0,0.0,0.0,52,0.00,,---,0.00,VWS V13.01,2013-08-08 21:45:00,
2013-08-08 16:50:00,76.1,57.2,29.27,NNW,338,0.0,9.2,52,0.00,,---,0.00,VWS V13.01,2013-08-08 21:50:00,
2013-08-08 16:55:00,75.7,57.4,29.27,NNW,338,10.2,10.2,53,0.00,,---,0.00,VWS V13.01,2013-08-08 21:55:00,
2013-08-08 17:00:00,75.5,56.7,29.28,NNW,338,10.2,10.2,52,0.00,,---,0.00,VWS V13.01,2013-08-08 22:00:00,
2013-08-08 17:05:00,75.5,57.2,29.28,NNW,338,0.0,0.0,53,0.00,,---,0.00,VWS V13.01,2013-08-08 22:05:00,
2013-08-08 17:10:00,75.3,57.0,29.28,NNW,338,0.0,0.0,53,0.00,,---,0.00,VWS V13.01,2013-08-08 22:10:00,
2013-08-08 17:15:00,75.3,57.0,29.28,NNW,338,2.6,9.2,53,0.00,,---,0.00,VWS V13.01,2013-08-08 22:15:00,
2013-08-08 17:20:00,75.3,57.5,29.28,NNW,338,11.0,11.0,54,0.00,,---,0.00,VWS V13.01,2013-08-08 22:20:00,
2013-08-08 17:25:00,75.3,57.0,29.27,North,0,11.0,11.0,53,0.00,,---,0.00,VWS V13.01,2013-08-08 22:25:00,
2013-08-08 17:30:00,75.3,57.0,29.27,North,0,0.0,25.4,53,0.00,,---,0.00,VWS V13.01,2013-08-08 22:30:00,
2013-08-08 17:35:00,75.3,57.5,29.27,North,0,0.0,0.0,54,0.00,,---,0.00,VWS V13.01,2013-08-08 22:35:00,
2013-08-08 17:40:00,75.2,57.9,29.27,North,0,0.0,0.0,55,0.00,,---,0.00,VWS V13.01,2013-08-08 22:40:00,
2013-08-08 17:45:00,75.3,58.0,29.27,North,0,0.0,0.0,55,0.00,,---,0.00,VWS V13.01,2013-08-08 22:45:00,
2013-08-08 17:50:00,75.3,58.0,29.28,North,0,6.6,6.6,55,0.00,,---,0.00,VWS V13.01,2013-08-08 22:50:00,
2013-08-08 17:55:00,75.3,57.5,29.28,North,0,3.0,3.0,54,0.00,,---,0.00,VWS V13.01,2013-08-08 22:55:00,
2013-08-08 18:00:00,75.3,57.5,29.28,North,0,0.0,0.0,54,0.00,,---,0.00,VWS V13.01,2013-08-08 23:00:00,
2013-08-08 18:06:00,75.3,57.5,29.27,North,0,3.4,3.4,54,0.00,,---,0.00,VWS V13.01,2013-08-08 23:06:00,
2013-08-08 18:11:00,75.3,57.5,29.27,North,0,0.0,3.4,54,0.00,,---,0.00,VWS V13.01,2013-08-08 23:11:00,
2013-08-08 18:16:00,75.2,57.4,29.27,North,0,0.0,0.0,54,0.00,,---,0.00,VWS V13.01,2013-08-08 23:16:00,
2013-08-08 18:21:00,75.2,57.4,29.27,North,0,0.0,0.0,54,0.00,,---,0.00,VWS V13.01,2013-08-08 23:21:00,
2013-08-08 18:26:00,75.2,57.9,29.27,North,0,0.0,0.0,55,0.00,,---,0.00,VWS V13.01,2013-08-08 23:26:00,
2013-08-08 18:31:00,75.3,58.0,29.27,North,0,0.0,0.0,55,0.00,,---,0.00,VWS V13.01,2013-08-08 23:31:00,
2013-08-08 18:36:00,75.3,58.0,29.27,North,0,0.0,0.0,55,0.00,,---,0.00,VWS V13.01,2013-08-08 23:36:00,
2013-08-08 18:41:00,75.3,58.5,29.27,North,0,0.0,0.0,56,0.00,,---,0.00,VWS V13.01,2013-08-08 23:41:00,
2013-08-08 18:46:00,75.5,58.7,29.27,North,0,0.0,0.0,56,0.00,,---,0.00,VWS V13.01,2013-08-08 23:46:00,
2013-08-08 18:51:00,75.5,58.7,29.27,North,0,0.0,0.0,56,0.00,,---,0.00,VWS V13.01,2013-08-08 23:51:00,
2013-08-08 18:56:00,75.7,58.9,29.27,North,0,0.0,0.0,56,0.00,,---,0.00,VWS V13.01,2013-08-08 23:56:00,
2013-08-08 19:01:00,75.7,58.9,29.26,North,0,0.0,0.0,56,0.00,,---,0.00,VWS V13.01,2013-08-09 00:01:00,
2013-08-08 19:06:00,75.5,58.7,29.26,North,0,0.0,0.0,56,0.00,,---,0.00,VWS V13.01,2013-08-09 00:06:00,
2013-08-08 19:11:00,75.5,58.7,29.26,North,0,0.0,0.0,56,0.00,,---,0.00,VWS V13.01,2013-08-09 00:11:00,
2013-08-08 19:17:00,75.5,58.7,29.26,North,0,0.0,0.0,56,0.00,,---,0.00,VWS V13.01,2013-08-09 00:17:00,
2013-08-08 19:22:00,75.3,58.5,29.26,North,0,0.0,0.0,56,0.00,,---,0.00,VWS V13.01,2013-08-09 00:22:00,
2013-08-08 19:27:00,75.3,59.0,29.27,North,0,0.0,0.0,57,0.00,,---,0.00,VWS V13.01,2013-08-09 00:27:00,
2013-08-08 19:32:00,75.3,59.0,29.27,North,0,0.0,0.0,57,0.00,,---,0.00,VWS V13.01,2013-08-09 00:32:00,
2013-08-08 19:37:00,75.2,58.9,29.26,North,0,0.0,0.0,57,0.00,,---,0.00,VWS V13.01,2013-08-09 00:37:00,
2013-08-08 19:43:00,75.0,58.8,29.26,North,0,0.0,0.0,57,0.00,,---,0.00,VWS V13.01,2013-08-09 00:43:00,
2013-08-08 19:48:00,74.8,58.6,29.26,North,0,0.0,0.0,57,0.00,,---,0.00,VWS V13.01,2013-08-09 00:48:00,
2013-08-08 19:54:00,74.4,58.2,29.27,North,0,0.0,0.0,57,0.00,,---,0.00,VWS V13.01,2013-08-09 00:54:00,
2013-08-08 20:00:00,74.4,58.7,29.27,North,0,0.0,0.0,58,0.00,,---,0.00,VWS V13.01,2013-08-09 01:00:00,
2013-08-08 20:06:00,74.3,58.6,29.26,North,0,0.0,0.0,58,0.00,,---,0.00,VWS V13.01,2013-08-09 01:06:00,
2013-08-08 20:12:00,74.1,58.4,29.26,North,0,0.0,0.0,58,0.00,,---,0.00,VWS V13.01,2013-08-09 01:12:00,
2013-08-08 20:17:00,73.9,58.7,29.27,North,0,0.0,0.0,59,0.00,,---,0.00,VWS V13.01,2013-08-09 01:17:00,
2013-08-08 20:22:00,73.5,58.3,29.27,North,0,0.0,0.0,59,0.00,,---,0.00,VWS V13.01,2013-08-09 01:22:00,
2013-08-08 20:28:00,73.2,58.5,29.27,North,0,0.0,0.0,60,0.00,,---,0.00,VWS V13.01,2013-08-09 01:28:00,
2013-08-08 20:33:00,72.8,58.1,29.27,North,0,0.0,0.0,60,0.00,,---,0.00,VWS V13.01,2013-08-09 01:33:00,
2013-08-08 20:38:00,72.6,57.9,29.26,North,0,0.0,0.0,60,0.00,,---,0.00,VWS V13.01,2013-08-09 01:38:00,
2013-08-08 20:43:00,72.3,58.1,29.26,North,0,0.0,0.0,61,0.00,,---,0.00,VWS V13.01,2013-08-09 01:43:00,
2013-08-08 20:48:00,72.1,57.9,29.26,North,0,0.0,0.0,61,0.00,,---,0.00,VWS V13.01,2013-08-09 01:48:00,
2013-08-08 20:54:00,71.7,57.5,29.26,North,0,0.0,0.0,61,0.00,,---,0.00,VWS V13.01,2013-08-09 01:54:00,
2013-08-08 20:59:00,71.4,57.7,29.26,North,0,0.0,0.0,62,0.00,,---,0.00,VWS V13.01,2013-08-09 01:59:00,
2013-08-08 21:05:00,71.4,57.7,29.26,North,0,0.0,0.0,62,0.00,,---,0.00,VWS V13.01,2013-08-09 02:05:00,
2013-08-08 21:10:00,71.2,57.5,29.27,North,0,0.0,0.0,62,0.00,,---,0.00,VWS V13.01,2013-08-09 02:10:00,
2013-08-08 21:15:00,70.8,57.6,29.26,North,0,0.0,0.0,63,0.00,,---,0.00,VWS V13.01,2013-08-09 02:15:00,
2013-08-08 21:20:00,70.7,57.5,29.26,North,0,0.0,0.0,63,0.00,,---,0.00,VWS V13.01,2013-08-09 02:20:00,
2013-08-08 21:25:00,70.7,57.9,29.26,North,0,0.0,0.0,64,0.00,,---,0.00,VWS V13.01,2013-08-09 02:25:00,
2013-08-08 21:30:00,70.5,57.8,29.27,North,0,0.0,0.0,64,0.00,,---,0.00,VWS V13.01,2013-08-09 02:30:00,
2013-08-08 21:35:00,70.3,57.6,29.27,North,0,0.0,0.0,64,0.00,,---,0.00,VWS V13.01,2013-08-09 02:35:00,
2013-08-08 21:40:00,70.3,57.6,29.26,North,0,0.0,0.0,64,0.00,,---,0.00,VWS V13.01,2013-08-09 02:40:00,
2013-08-08 21:45:00,70.3,58.0,29.26,North,0,0.0,0.0,65,0.00,,---,0.00,VWS V13.01,2013-08-09 02:45:00,
2013-08-08 21:51:00,70.3,58.0,29.26,North,0,0.0,0.0,65,0.00,,---,0.00,VWS V13.01,2013-08-09 02:51:00,
2013-08-08 21:56:00,70.1,57.8,29.26,North,0,0.0,0.0,65,0.00,,---,0.00,VWS V13.01,2013-08-09 02:56:00,
2013-08-08 22:01:00,70.1,57.8,29.26,North,0,0.0,0.0,65,0.00,,---,0.00,VWS V13.01,2013-08-09 03:01:00,
2013-08-08 22:07:00,69.9,57.6,29.26,North,0,0.0,0.0,65,0.00,,---,0.00,VWS V13.01,2013-08-09 03:07:00,
2013-08-08 22:13:00,69.9,58.0,29.26,North,0,0.0,0.0,66,0.00,,---,0.00,VWS V13.01,2013-08-09 03:13:00,
2013-08-08 22:19:00,69.8,57.9,29.26,North,0,0.0,0.0,66,0.00,,---,0.00,VWS V13.01,2013-08-09 03:19:00,
2013-08-08 22:24:00,69.8,57.9,29.26,North,0,0.0,0.0,66,0.00,,---,0.00,VWS V13.01,2013-08-09 03:24:00,
2013-08-08 22:29:00,69.6,57.8,29.26,North,0,0.0,0.0,66,0.00,,---,0.00,VWS V13.01,2013-08-09 03:29:00,
2013-08-08 22:34:00,69.6,57.8,29.26,North,0,0.0,0.0,66,0.00,,---,0.00,VWS V13.01,2013-08-09 03:34:00,
2013-08-08 22:39:00,69.6,57.8,29.26,North,0,0.0,0.0,66,0.00,,---,0.00,VWS V13.01,2013-08-09 03:39:00,
2013-08-08 22:44:00,69.6,57.8,29.26,North,0,0.0,0.0,66,0.00,,---,0.00,VWS V13.01,2013-08-09 03:44:00,
2013-08-08 22:49:00,69.6,57.8,29.26,North,0,0.0,0.0,66,0.00,,---,0.00,VWS V13.01,2013-08-09 03:49:00,
2013-08-08 22:54:00,69.6,57.8,29.25,North,0,0.0,0.0,66,0.00,,---,0.00,VWS V13.01,2013-08-09 03:54:00,
2013-08-08 22:59:00,69.6,57.8,29.25,North,0,0.0,0.0,66,0.00,,---,0.00,VWS V13.01,2013-08-09 03:59:00,
2013-08-08 23:01:00,69.6,57.8,29.25,North,0,0.0,0.0,66,0.00,,---,0.00,VWS V13.01,2013-08-09 04:01:00,
2013-08-08 23:02:00,69.4,57.6,29.25,North,0,0.0,0.0,66,0.00,,---,0.00,VWS V13.01,2013-08-09 04:02:00,
2013-08-08 23:07:00,69.4,58.0,29.25,North,0,0.0,0.0,67,0.00,,---,0.00,VWS V13.01,2013-08-09 04:07:00,
2013-08-08 23:09:00,69.4,58.0,29.25,North,0,0.0,0.0,67,0.00,,---,0.00,VWS V13.01,2013-08-09 04:09:00,
2013-08-08 23:14:00,69.4,58.0,29.25,North,0,0.0,0.0,67,0.00,,---,0.00,VWS V13.01,2013-08-09 04:14:00,
2013-08-08 23:19:00,69.2,57.8,29.26,North,0,0.0,0.0,67,0.00,,---,0.00,VWS V13.01,2013-08-09 04:19:00,
2013-08-08 23:24:00,69.0,57.6,29.26,North,0,0.0,0.0,67,0.00,,---,0.00,VWS V13.01,2013-08-09 04:24:00,
2013-08-08 23:29:00,69.0,57.6,29.25,North,0,0.0,0.0,67,0.00,,---,0.00,VWS V13.01,2013-08-09 04:29:00,
2013-08-08 23:34:00,68.9,57.5,29.25,North,0,0.0,0.0,67,0.00,,---,0.00,VWS V13.01,2013-08-09 04:34:00,
2013-08-08 23:39:00,68.7,57.3,29.25,North,0,0.0,0.0,67,0.00,,---,0.00,VWS V13.01,2013-08-09 04:39:00,
2013-08-08 23:44:00,68.7,57.3,29.26,North,0,0.0,0.0,67,0.00,,---,0.00,VWS V13.01,2013-08-09 04:44:00,
2013-08-08 23:49:00,68.5,57.5,29.26,North,0,0.0,0.0,68,0.00,,---,0.00,VWS V13.01,2013-08-09 04:49:00,
2013-08-08 23:54:00,68.5,57.5,29.26,North,0,0.0,0.0,68,0.00,,---,0.00,VWS V13.01,2013-08-09 04:54:00,
2013-08-08 23:59:00,68.3,57.3,29.26,North,0,0.0,0.0,68,0.00,,---,0.00,VWS V13.01,2013-08-09 04:59:00,